| time (UTC) | temp F | wind direction | speed knots | gust knots | rain 1hr in | rain 24hr in | rain mn in | humidity % | barometer mb |
| 20260906133146 | 81 | 309 | 5.2 | 7.0 | 0.00 | 0.00 | 0.00 | 91 | 1013.9 |
| 20260906132646 | 80 | 298 | 1.7 | 4.3 | 0.00 | 0.00 | 0.00 | 91 | 1013.5 |
| 20260906132146 | 80 | 287 | 1.7 | 5.2 | 0.00 | 0.00 | 0.00 | 91 | 1013.5 |
| 20260906131646 | 80 | 314 | 2.6 | 6.1 | 0.00 | 0.00 | 0.00 | 91 | 1013.2 |
| 20260906131147 | 80 | 283 | 1.7 | 4.3 | 0.00 | 0.00 | 0.00 | 91 | 1013.5 |
| 20260906130646 | 80 | 276 | 0.9 | 2.6 | 0.00 | 0.00 | 0.00 | 92 | 1013.5 |
| 20260906130146 | 80 | 283 | 2.6 | 3.5 | 0.00 | 0.00 | 0.00 | 92 | 1013.5 |
| 20260906125646 | 80 | 289 | 1.7 | 2.6 | 0.00 | 0.00 | 0.00 | 93 | 1013.2 |
| 20260906125146 | 79 | 280 | 2.6 | 4.3 | 0.00 | 0.00 | 0.00 | 93 | 1013.2 |
| 20260906124646 | 79 | 296 | 0.0 | 3.5 | 0.00 | 0.00 | 0.00 | 93 | 1013.2 |
| 20260906124146 | 79 | 167 | 0.0 | 2.6 | 0.00 | 0.00 | 0.00 | 94 | 1012.9 |
| 20260906123646 | 78 | 110 | 0.0 | 2.6 | 0.00 | 0.00 | 0.00 | 95 | 1013.2 |
| 20260906123147 | 78 | 136 | 0.9 | 2.6 | 0.00 | 0.00 | 0.00 | 96 | 1012.9 |
| 20260906122646 | 77 | 212 | 0.0 | 1.7 | 0.00 | 0.00 | 0.00 | 97 | 1012.9 |
| 20260906122146 | 77 | 231 | 0.9 | 2.6 | 0.00 | 0.00 | 0.00 | 97 | 1012.9 |
| 20260906121647 | 77 | 187 | 0.0 | 1.7 | 0.00 | 0.00 | 0.00 | 98 | 1012.9 |
| 20260906121147 | 77 | 328 | 0.0 | 1.7 | 0.00 | 0.00 | 0.00 | 98 | 1012.9 |
| 20260906120646 | 76 | 324 | 0.9 | 2.6 | 0.00 | 0.00 | 0.00 | 98 | 1012.9 |
| 20260906120146 | 76 | 162 | 1.7 | 1.7 | 0.00 | 0.00 | 0.00 | 98 | 1012.5 |
| 20260906115646 | 76 | 210 | 0.0 | 2.6 | 0.00 | 0.00 | 0.00 | 98 | 1012.5 |
| 20260906115147 | 76 | 184 | 0.0 | 2.6 | 0.00 | 0.00 | 0.00 | 98 | 1012.2 |
| 20260906114646 | 76 | 276 | 0.9 | 2.6 | 0.00 | 0.00 | 0.00 | 98 | 1012.5 |
| 20260906114146 | 77 | 303 | 1.7 | 2.6 | 0.02 | 0.00 | 0.00 | 98 | 1012.2 |
| 20260906113646 | 77 | 305 | 1.7 | 2.6 | 0.02 | 0.00 | 0.00 | 98 | 1012.2 |
| 20260906113146 | 77 | 298 | 2.6 | 3.5 | 0.00 | 0.00 | 0.00 | 98 | 1012.2 |
| 20260906112646 | 77 | 278 | 2.6 | 3.5 | 0.00 | 0.00 | 0.00 | 98 | 1012.2 |
| 20260906112146 | 77 | 355 | 1.7 | 3.5 | 0.00 | 0.00 | 0.00 | 98 | 1012.5 |
| 20260906111646 | 77 | 276 | 1.7 | 2.6 | 0.00 | 0.00 | 0.00 | 98 | 1012.5 |
| 20260906111146 | 77 | 298 | 1.7 | 2.6 | 0.00 | 0.00 | 0.00 | 98 | 1012.5 |
| 20260906110646 | 77 | 302 | 1.7 | 3.5 | 0.00 | 0.00 | 0.00 | 98 | 1012.2 |
| 20260906110146 | 77 | 292 | 0.9 | 4.3 | 0.00 | 0.00 | 0.00 | 97 | 1011.9 |
| 20260906105646 | 77 | 297 | 2.6 | 3.5 | 0.00 | 0.00 | 0.00 | 98 | 1011.9 |
| 20260906105146 | 77 | 296 | 2.6 | 3.5 | 0.00 | 0.00 | 0.00 | 98 | 1011.9 |
| 20260906104646 | 77 | 138 | 0.0 | 3.5 | 0.00 | 0.00 | 0.00 | 98 | 1012.2 |
| 20260906104147 | 77 | 237 | 0.9 | 2.6 | 0.00 | 0.00 | 0.00 | 98 | 1011.9 |
| 20260906103646 | 77 | 302 | 0.9 | 2.6 | 0.00 | 0.00 | 0.00 | 98 | 1011.9 |
| 20260906103146 | 77 | 220 | 1.7 | 3.5 | 0.00 | 0.00 | 0.00 | 98 | 1011.9 |
| 20260906102648 | 77 | 253 | 0.9 | 5.2 | 0.00 | 0.00 | 0.00 | 99 | 1011.9 |
| 20260906102146 | 77 | 223 | 1.7 | 2.6 | 0.00 | 0.00 | 0.00 | 99 | 1011.9 |
| 20260906101648 | 77 | 161 | 0.0 | 3.5 | 0.00 | 0.00 | 0.00 | 99 | 1011.5 |
| 20260906101146 | 77 | 96 | 0.0 | 3.5 | 0.00 | 0.00 | 0.00 | 99 | 1011.9 |
| 20260906100646 | 77 | 269 | 0.9 | 3.5 | 0.00 | 0.00 | 0.00 | 99 | 1011.9 |
| 20260906100146 | 77 | 340 | 0.9 | 2.6 | 0.00 | 0.00 | 0.00 | 99 | 1011.9 |
| 20260906095646 | 77 | 129 | 1.7 | 4.3 | 0.00 | 0.00 | 0.00 | 99 | 1011.5 |
| 20260906095147 | 77 | 146 | 0.0 | 2.6 | 0.00 | 0.00 | 0.00 | 99 | 1011.5 |
| 20260906094647 | 77 | 169 | 0.9 | 2.6 | 0.00 | 0.00 | 0.00 | 99 | 1011.5 |
| 20260906094147 | 77 | 163 | 3.5 | 4.3 | 0.00 | 0.00 | 0.00 | 99 | 1011.5 |
| 20260906093646 | 77 | 254 | 0.9 | 2.6 | 0.00 | 0.00 | 0.00 | 99 | 1011.5 |
| 20260906093146 | 77 | 267 | 1.7 | 3.5 | 0.00 | 0.00 | 0.00 | 99 | 1011.5 |
| 20260906092646 | 77 | 250 | 1.7 | 2.6 | 0.00 | 0.00 | 0.00 | 99 | 1011.9 |
| 20260906092146 | 77 | 262 | 1.7 | 4.3 | 0.00 | 0.00 | 0.00 | 99 | 1011.9 |
| 20260906091646 | 77 | 19 | 0.0 | 3.5 | 0.00 | 0.00 | 0.00 | 99 | 1011.9 |
| 20260906091147 | 77 | 157 | 2.6 | 2.6 | 0.00 | 0.00 | 0.00 | 99 | 1011.9 |
| 20260906090646 | 77 | 213 | 0.0 | 2.6 | 0.00 | 0.00 | 0.00 | 99 | 1011.5 |
| 20260906090146 | 77 | 194 | 2.6 | 3.5 | 0.00 | 0.00 | 0.00 | 99 | 1011.9 |
| 20260906085646 | 77 | 211 | 1.7 | 1.7 | 0.00 | 0.00 | 0.00 | 99 | 1011.9 |
| 20260906085147 | 77 | 178 | 0.0 | 1.7 | 0.00 | 0.00 | 0.00 | 99 | 1011.9 |
| 20260906084646 | 77 | 218 | 0.9 | 1.7 | 0.00 | 0.00 | 0.00 | 99 | 1011.9 |
| 20260906084146 | 77 | 342 | 1.7 | 1.7 | 0.00 | 0.00 | 0.00 | 99 | 1011.9 |
| 20260906083646 | 77 | 315 | 0.0 | 0.9 | 0.00 | 0.00 | 0.00 | 98 | 1011.9 |
| 20260906083146 | 77 | 333 | 0.0 | 1.7 | 0.00 | 0.00 | 0.00 | 98 | 1011.5 |
| 20260906082646 | 77 | 336 | 0.0 | 0.0 | 0.00 | 0.00 | 0.00 | 98 | 1011.9 |
| 20260906082147 | 77 | 343 | 0.0 | 0.9 | 0.00 | 0.00 | 0.00 | 98 | 1011.5 |
| 20260906081646 | 77 | 244 | 0.0 | 0.9 | 0.00 | 0.00 | 0.00 | 98 | 1011.5 |
| 20260906081146 | 77 | 315 | 0.0 | 1.7 | 0.00 | 0.00 | 0.00 | 98 | 1011.5 |
| 20260906080646 | 77 | 4 | 0.0 | 1.7 | 0.00 | 0.00 | 0.00 | 98 | 1011.5 |
| 20260906080146 | 77 | 258 | 0.0 | 0.9 | 0.00 | 0.00 | 0.00 | 98 | 1011.5 |
| 20260906075646 | 77 | 333 | 0.0 | 1.7 | 0.00 | 0.00 | 0.00 | 98 | 1011.5 |
| 20260906075147 | 77 | 255 | 0.9 | 1.7 | 0.00 | 0.00 | 0.00 | 98 | 1011.5 |
| 20260906074646 | 77 | 315 | 0.0 | 0.0 | 0.00 | 0.00 | 0.00 | 98 | 1011.5 |
| 20260906074146 | 77 | 343 | 0.0 | 1.7 | 0.00 | 0.00 | 0.00 | 98 | 1011.5 |
| 20260906073646 | 77 | 214 | 0.9 | 2.6 | 0.00 | 0.00 | 0.00 | 98 | 1011.5 |
| 20260906073146 | 77 | 211 | 1.7 | 2.6 | 0.00 | 0.00 | 0.00 | 98 | 1011.5 |
| 20260906072647 | 77 | 237 | 2.6 | 2.6 | 0.00 | 0.00 | 0.00 | 98 | 1011.5 |
| 20260906072146 | 77 | 235 | 0.9 | 2.6 | 0.00 | 0.00 | 0.00 | 98 | 1011.5 |
| 20260906071647 | 77 | 207 | 1.7 | 2.6 | 0.00 | 0.00 | 0.00 | 98 | 1011.5 |
| 20260906071146 | 77 | 215 | 0.9 | 2.6 | 0.00 | 0.00 | 0.00 | 98 | 1011.5 |
| 20260906070646 | 77 | 233 | 0.9 | 2.6 | 0.00 | 0.00 | 0.00 | 98 | 1011.5 |
| 20260906070146 | 77 | 196 | 0.0 | 1.7 | 0.00 | 0.00 | 0.00 | 98 | 1011.9 |
| 20260906065648 | 77 | 240 | 2.6 | 2.6 | 0.00 | 0.00 | 0.00 | 98 | 1011.9 |
| 20260906065146 | 77 | 224 | 0.0 | 2.6 | 0.00 | 0.00 | 0.00 | 98 | 1011.5 |
| 20260906064646 | 77 | 216 | 0.9 | 2.6 | 0.00 | 0.00 | 0.00 | 98 | 1011.9 |
| 20260906064146 | 77 | 207 | 1.7 | 2.6 | 0.00 | 0.00 | 0.00 | 98 | 1011.9 |
| 20260906063649 | 77 | 189 | 1.7 | 2.6 | 0.00 | 0.00 | 0.00 | 98 | 1011.5 |
| 20260906063146 | 77 | 187 | 0.9 | 1.7 | 0.00 | 0.00 | 0.00 | 98 | 1011.9 |
| 20260906062646 | 77 | 232 | 0.9 | 1.7 | 0.00 | 0.00 | 0.00 | 98 | 1011.9 |
| 20260906062146 | 77 | 210 | 0.0 | 1.7 | 0.00 | 0.00 | 0.00 | 98 | 1011.9 |
| 20260906061646 | 77 | 221 | 0.0 | 0.9 | 0.00 | 0.00 | 0.00 | 97 | 1011.5 |
| 20260906061147 | 77 | 180 | 0.0 | 0.9 | 0.00 | 0.00 | 0.00 | 98 | 1011.9 |
| 20260906060647 | 77 | 213 | 1.7 | 1.7 | 0.00 | 0.00 | 0.00 | 98 | 1011.9 |
| 20260906060147 | 77 | 235 | 0.9 | 2.6 | 0.00 | 0.00 | 0.00 | 98 | 1011.9 |
| 20260906055646 | 77 | 221 | 1.7 | 2.6 | 0.00 | 0.00 | 0.00 | 98 | 1011.5 |
| 20260906055146 | 77 | 213 | 3.5 | 4.3 | 0.00 | 0.00 | 0.00 | 98 | 1011.9 |
| 20260906054646 | 77 | 196 | 0.9 | 2.6 | 0.00 | 0.00 | 0.00 | 98 | 1011.9 |
| 20260906054146 | 77 | 283 | 1.7 | 2.6 | 0.00 | 0.00 | 0.00 | 98 | 1011.9 |
| 20260906053646 | 77 | 228 | 1.7 | 4.3 | 0.00 | 0.00 | 0.00 | 98 | 1011.9 |
| 20260906053146 | 77 | 231 | 1.7 | 3.5 | 0.00 | 0.00 | 0.00 | 97 | 1011.9 |
| 20260906052646 | 77 | 215 | 2.6 | 4.3 | 0.00 | 0.00 | 0.00 | 97 | 1011.9 |
| 20260906052146 | 77 | 201 | 2.6 | 4.3 | 0.00 | 0.00 | 0.00 | 97 | 1011.9 |
| 20260906051647 | 77 | 185 | 2.6 | 4.3 | 0.00 | 0.00 | 0.00 | 97 | 1011.5 |
| 20260906051146 | 77 | 225 | 3.5 | 4.3 | 0.00 | 0.00 | 0.00 | 97 | 1011.5 |
| 20260906050646 | 77 | 213 | 3.5 | 3.5 | 0.00 | 0.00 | 0.00 | 97 | 1011.5 |
| 20260906050147 | 77 | 194 | 1.7 | 3.5 | 0.00 | 0.00 | 0.00 | 97 | 1011.9 |
| 20260906045646 | 77 | 209 | 1.7 | 2.6 | 0.00 | 0.00 | 1.16 | 97 | 1011.5 |
| 20260906045146 | 77 | 252 | 1.7 | 1.7 | 0.00 | 0.00 | 1.16 | 97 | 1011.5 |
| 20260906044646 | 77 | 205 | 0.9 | 2.6 | 0.00 | 0.00 | 1.16 | 97 | 1011.5 |
| 20260906044146 | 77 | 180 | 0.9 | 2.6 | 0.00 | 0.00 | 1.16 | 97 | 1011.5 |
| 20260906043646 | 77 | 197 | 1.7 | 3.5 | 0.00 | 0.00 | 1.16 | 97 | 1011.5 |
| 20260906043146 | 77 | 192 | 2.6 | 3.5 | 0.00 | 0.00 | 1.16 | 97 | 1011.5 |
| 20260906042646 | 78 | 183 | 2.6 | 3.5 | 0.00 | 0.00 | 1.16 | 96 | 1011.5 |
| 20260906042146 | 78 | 171 | 2.6 | 3.5 | 0.00 | 0.00 | 1.16 | 96 | 1011.9 |
| 20260906041646 | 78 | 184 | 2.6 | 2.6 | 0.00 | 0.00 | 1.16 | 96 | 1011.9 |
| 20260906041146 | 78 | 175 | 1.7 | 2.6 | 0.00 | 0.00 | 1.16 | 96 | 1011.5 |
| 20260906040646 | 78 | 168 | 2.6 | 3.5 | 0.00 | 0.00 | 1.16 | 95 | 1011.5 |
| 20260906040146 | 78 | 165 | 0.9 | 2.6 | 0.00 | 0.00 | 1.16 | 96 | 1011.5 |
| 20260906035646 | 78 | 141 | 1.7 | 2.6 | 0.00 | 0.00 | 1.16 | 96 | 1011.5 |
| 20260906035147 | 78 | 129 | 0.0 | 0.0 | 0.00 | 0.00 | 1.16 | 95 | 1011.5 |
| 20260906034646 | 78 | 160 | 0.9 | 2.6 | 0.00 | 0.00 | 1.16 | 95 | 1011.5 |
| 20260906034146 | 78 | 152 | 1.7 | 1.7 | 0.00 | 0.00 | 1.16 | 96 | 1011.5 |
| 20260906033646 | 78 | 132 | 0.9 | 2.6 | 0.00 | 0.00 | 1.16 | 96 | 1011.5 |
| 20260906033146 | 78 | 190 | 1.7 | 1.7 | 0.00 | 0.00 | 1.16 | 95 | 1011.5 |
| 20260906032646 | 78 | 239 | 1.7 | 3.5 | 0.00 | 0.00 | 1.16 | 95 | 1011.5 |
| 20260906032147 | 78 | 194 | 2.6 | 2.6 | 0.00 | 0.00 | 1.16 | 95 | 1011.5 |
| 20260906031646 | 78 | 183 | 2.6 | 2.6 | 0.00 | 0.00 | 1.16 | 95 | 1011.9 |
| 20260906031146 | 78 | 154 | 0.9 | 1.7 | 0.00 | 0.00 | 1.16 | 95 | 1011.9 |
| 20260906030646 | 78 | 224 | 0.0 | 2.6 | 0.00 | 0.00 | 1.16 | 95 | 1011.5 |
| 20260906030146 | 78 | 214 | 1.7 | 2.6 | 0.00 | 0.00 | 1.16 | 95 | 1011.5 |
| 20260906025646 | 78 | 192 | 1.7 | 2.6 | 0.00 | 0.00 | 1.16 | 95 | 1011.5 |
| 20260906025146 | 78 | 190 | 0.9 | 1.7 | 0.02 | 0.00 | 1.16 | 95 | 1011.5 |
| 20260906024646 | 78 | 163 | 1.7 | 2.6 | 0.02 | 0.00 | 1.16 | 95 | 1011.9 |
| 20260906024146 | 78 | 103 | 0.0 | 1.7 | 0.00 | 0.00 | 1.15 | 95 | 1011.5 |
| 20260906023646 | 78 | 65 | 0.0 | 0.9 | 0.00 | 0.00 | 1.15 | 95 | 1011.5 |
| 20260906023146 | 78 | 129 | 0.9 | 1.7 | 0.00 | 0.00 | 1.15 | 95 | 1011.5 |
| 20260906022646 | 78 | 193 | 1.7 | 1.7 | 0.00 | 0.00 | 1.15 | 95 | 1011.5 |
| 20260906022146 | 78 | 267 | 1.7 | 1.7 | 0.00 | 0.00 | 1.15 | 95 | 1011.5 |
| 20260906021646 | 78 | 282 | 0.9 | 2.6 | 0.00 | 0.00 | 1.15 | 94 | 1011.5 |
| 20260906021149 | 79 | 315 | 0.0 | 2.6 | 0.00 | 0.00 | 1.15 | 94 | 1011.5 |
| 20260906020647 | 79 | 288 | 1.7 | 1.7 | 0.00 | 0.00 | 1.15 | 94 | 1011.5 |
| 20260906020146 | 79 | 236 | 1.7 | 2.6 | 0.00 | 0.00 | 1.15 | 93 | 1011.9 |
| 20260906015647 | 79 | 313 | 0.9 | 2.6 | 0.00 | 0.00 | 1.15 | 94 | 1011.5 |
| 20260906015146 | 79 | 345 | 0.9 | 2.6 | 0.00 | 0.00 | 1.15 | 93 | 1011.2 |
| 20260906014646 | 79 | 34 | 0.0 | 1.7 | 0.00 | 0.00 | 1.15 | 92 | 1011.2 |
| 20260906014147 | 79 | 44 | 0.0 | 1.7 | 0.00 | 0.00 | 1.15 | 92 | 1011.5 |
| 20260906013646 | 79 | 82 | 1.7 | 2.6 | 0.00 | 0.00 | 1.15 | 93 | 1011.2 |
| 20260906013146 | 78 | 59 | 0.0 | 1.7 | 0.00 | 0.00 | 1.15 | 93 | 1011.2 |
| 20260906012646 | 78 | 164 | 0.0 | 0.0 | 0.00 | 0.00 | 1.15 | 92 | 1011.2 |
| 20260906012147 | 78 | 129 | 0.0 | 0.0 | 0.00 | 0.00 | 1.15 | 93 | 1011.2 |
| 20260906011647 | 78 | 148 | 1.7 | 2.6 | 0.00 | 0.00 | 1.15 | 93 | 1011.2 |
| 20260906011146 | 78 | 210 | 0.0 | 0.0 | 0.00 | 0.00 | 1.15 | 92 | 1011.2 |
| 20260906010647 | 78 | 135 | 0.0 | 0.0 | 0.00 | 0.00 | 1.15 | 92 | 1011.2 |
| 20260906010147 | 78 | 135 | 0.0 | 0.0 | 0.00 | 0.00 | 1.15 | 91 | 1011.2 |
| 20260906005646 | 78 | 143 | 1.7 | 1.7 | 0.00 | 0.00 | 1.15 | 91 | 1011.2 |
| 20260906005147 | 78 | 209 | 0.0 | 1.7 | 0.00 | 0.00 | 1.15 | 91 | 1011.5 |
| 20260906004646 | 78 | 284 | 0.9 | 2.6 | 0.00 | 0.00 | 1.15 | 91 | 1011.2 |
| 20260906004146 | 78 | 234 | 1.7 | 2.6 | 0.00 | 0.00 | 1.15 | 91 | 1011.2 |
| 20260906003646 | 79 | 232 | 1.7 | 1.7 | 0.00 | 0.00 | 1.15 | 91 | 1011.2 |
| 20260906003146 | 78 | 231 | 2.6 | 3.5 | 0.00 | 0.00 | 1.15 | 91 | 1011.5 |
| 20260906002646 | 78 | 230 | 1.7 | 4.3 | 0.00 | 0.00 | 1.15 | 92 | 1011.2 |
| 20260906002146 | 79 | 234 | 4.3 | 4.3 | 0.00 | 0.00 | 1.15 | 93 | 1011.2 |
| 20260906001646 | 79 | 228 | 3.5 | 3.5 | 0.00 | 0.00 | 1.15 | 93 | 1011.5 |
| 20260906001146 | 79 | 207 | 1.7 | 2.6 | 0.00 | 0.00 | 1.15 | 94 | 1011.5 |
| 20260906000646 | 79 | 228 | 1.7 | 3.5 | 0.00 | 0.00 | 1.15 | 94 | 1011.5 |
| 20260906000147 | 79 | 189 | 0.0 | 1.7 | 0.00 | 0.00 | 1.15 | 95 | 1011.5 |
| 20260905235646 | 79 | 173 | 1.7 | 1.7 | 0.00 | 0.00 | 1.15 | 95 | 1011.5 |
| 20260905235147 | 79 | 228 | 0.0 | 2.6 | 0.00 | 0.00 | 1.15 | 95 | 1011.5 |
| 20260905234647 | 79 | 275 | 1.7 | 3.5 | 0.00 | 0.00 | 1.15 | 94 | 1011.5 |
| 20260905234146 | 79 | 252 | 0.9 | 2.6 | 0.00 | 0.00 | 1.15 | 94 | 1011.2 |
| 20260905233646 | 78 | 226 | 1.7 | 2.6 | 0.00 | 0.00 | 1.15 | 94 | 1011.2 |
| 20260905233146 | 78 | 174 | 0.0 | 2.6 | 0.00 | 0.00 | 1.15 | 93 | 1011.5 |
| 20260905232646 | 78 | 192 | 1.7 | 2.6 | 0.00 | 0.00 | 1.15 | 93 | 1011.9 |
| 20260905232146 | 78 | 223 | 2.6 | 3.5 | 0.02 | 0.00 | 1.15 | 92 | 1011.9 |
| 20260905231646 | 78 | 243 | 2.6 | 3.5 | 0.05 | 0.00 | 1.15 | 91 | 1011.5 |
| 20260905231147 | 78 | 223 | 1.7 | 2.6 | 0.05 | 0.00 | 1.15 | 92 | 1011.5 |
| 20260905230646 | 78 | 47 | 0.0 | 3.5 | 0.05 | 0.00 | 1.15 | 92 | 1011.9 |
| 20260905230146 | 78 | 27 | 0.9 | 1.7 | 0.05 | 0.00 | 1.14 | 92 | 1011.5 |
| 20260905225647 | 78 | 71 | 1.7 | 3.5 | 0.17 | 0.00 | 1.14 | 93 | 1011.9 |
| 20260905225146 | 78 | 68 | 0.0 | 3.5 | 0.35 | 0.00 | 1.13 | 93 | 1012.2 |
| 20260905224646 | 79 | 13 | 4.3 | 5.2 | 0.40 | 0.00 | 1.11 | 94 | 1012.2 |
| 20260905224147 | 80 | 16 | 2.6 | 5.2 | 0.24 | 0.00 | 1.07 | 93 | 1012.2 |
| 20260905223646 | 80 | 63 | 0.0 | 7.8 | 0.07 | 0.00 | 1.04 | 92 | 1012.2 |
| 20260905223146 | 82 | 66 | 11.3 | 11.3 | 0.00 | 0.00 | 1.03 | 87 | 1012.2 |
| 20260905222646 | 82 | 341 | 2.6 | 4.3 | 0.00 | 0.00 | 1.03 | 86 | 1011.9 |
| 20260905222146 | 83 | 7 | 2.6 | 3.5 | 0.00 | 0.00 | 1.03 | 85 | 1012.2 |
| 20260905221646 | 83 | 335 | 2.6 | 4.3 | 0.00 | 0.00 | 1.03 | 83 | 1012.2 |
| 20260905221146 | 83 | 284 | 4.3 | 7.8 | 0.00 | 0.00 | 1.03 | 82 | 1011.9 |
| 20260905220646 | 83 | 237 | 7.0 | 13.9 | 0.00 | 0.00 | 1.03 | 83 | 1011.9 |
| 20260905220148 | 83 | 224 | 10.4 | 11.3 | 0.00 | 0.00 | 1.03 | 83 | 1011.9 |
| 20260905215647 | 84 | 216 | 9.6 | 15.6 | 0.00 | 0.00 | 1.03 | 82 | 1011.5 |
| 20260905215146 | 88 | 218 | 11.3 | 17.4 | 0.00 | 0.00 | 1.03 | 73 | 1011.5 |
| 20260905214646 | 89 | 217 | 7.8 | 9.6 | 0.00 | 0.00 | 1.03 | 67 | 1011.5 |
| 20260905214146 | 88 | 197 | 7.8 | 7.8 | 0.00 | 0.00 | 1.03 | 67 | 1011.2 |
| 20260905213646 | 89 | 177 | 8.7 | 10.4 | 0.00 | 0.00 | 1.03 | 67 | 1011.5 |
| 20260905213148 | 89 | 180 | 7.8 | 11.3 | 0.00 | 0.00 | 1.03 | 68 | 1011.2 |
| 20260905212646 | 90 | 198 | 4.3 | 9.6 | 0.00 | 0.00 | 1.03 | 66 | 1011.2 |
| 20260905212146 | 90 | 189 | 6.1 | 8.7 | 0.00 | 0.00 | 1.03 | 67 | 1011.2 |
| 20260905211646 | 90 | 179 | 5.2 | 8.7 | 0.00 | 0.00 | 1.03 | 69 | 1011.2 |
| 20260905211148 | 89 | 172 | 5.2 | 7.8 | 0.00 | 0.00 | 1.03 | 69 | 1011.2 |
| 20260905210646 | 89 | 138 | 5.2 | 5.2 | 0.00 | 0.00 | 1.03 | 65 | 1011.2 |
| 20260905210146 | 89 | 163 | 2.6 | 7.0 | 0.00 | 0.00 | 1.03 | 66 | 1011.2 |
| 20260905205646 | 89 | 181 | 6.1 | 7.8 | 0.00 | 0.00 | 1.03 | 66 | 1011.2 |
| 20260905205146 | 90 | 177 | 3.5 | 7.0 | 0.00 | 0.00 | 1.03 | 65 | 1011.2 |
| 20260905204646 | 92 | 145 | 2.6 | 4.3 | 0.00 | 0.00 | 1.03 | 62 | 1011.2 |
| 20260905204147 | 91 | 251 | 0.9 | 3.5 | 0.00 | 0.00 | 1.03 | 64 | 1011.2 |
| 20260905203646 | 90 | 127 | 2.6 | 5.2 | 0.00 | 0.00 | 1.03 | 66 | 1011.2 |
| 20260905203146 | 90 | 168 | 4.3 | 7.8 | 0.00 | 0.00 | 1.03 | 66 | 1011.2 |
| 20260905202646 | 90 | 15 | 0.9 | 4.3 | 0.00 | 0.00 | 1.03 | 64 | 1011.2 |
| 20260905202146 | 90 | 177 | 4.3 | 5.2 | 0.00 | 0.00 | 1.03 | 67 | 1011.2 |
| 20260905201646 | 90 | 79 | 2.6 | 7.8 | 0.00 | 0.00 | 1.03 | 65 | 1011.5 |
| 20260905201146 | 91 | 160 | 3.5 | 7.0 | 0.00 | 0.00 | 1.03 | 66 | 1011.2 |
| 20260905200646 | 91 | 167 | 4.3 | 6.1 | 0.00 | 0.00 | 1.03 | 66 | 1011.5 |
| 20260905200147 | 89 | 59 | 2.6 | 3.5 | 0.00 | 0.00 | 1.03 | 69 | 1011.2 |
| 20260905195646 | 89 | 173 | 4.3 | 6.1 | 0.00 | 0.00 | 1.03 | 69 | 1011.2 |
| 20260905195147 | 90 | 181 | 3.5 | 5.2 | 0.00 | 0.00 | 1.03 | 67 | 1011.5 |
| 20260905194647 | 90 | 176 | 2.6 | 3.5 | 0.00 | 0.00 | 1.03 | 68 | 1011.9 |
| 20260905194146 | 89 | 107 | 0.9 | 2.6 | 0.00 | 0.00 | 1.03 | 70 | 1011.9 |
| 20260905193646 | 88 | 160 | 3.5 | 6.1 | 0.00 | 0.00 | 1.03 | 71 | 1011.5 |
| 20260905193147 | 88 | 116 | 1.7 | 4.3 | 0.00 | 0.00 | 1.03 | 70 | 1011.9 |
| 20260905192648 | 88 | 311 | 1.7 | 4.3 | 0.00 | 0.00 | 1.03 | 71 | 1011.9 |
| 20260905192146 | 88 | 344 | 1.7 | 3.5 | 0.00 | 0.00 | 1.03 | 70 | 1012.2 |
| 20260905191646 | 88 | 356 | 2.6 | 6.1 | 0.00 | 0.00 | 1.03 | 70 | 1012.2 |
| 20260905191146 | 89 | 327 | 1.7 | 4.3 | 0.00 | 0.00 | 1.03 | 69 | 1012.2 |
| 20260905190647 | 90 | 59 | 2.6 | 6.1 | 0.00 | 0.00 | 1.03 | 68 | 1012.2 |
| 20260905190146 | 90 | 232 | 2.6 | 4.3 | 0.00 | 0.00 | 1.03 | 68 | 1012.2 |
| 20260905185647 | 91 | 169 | 2.6 | 5.2 | 0.00 | 0.00 | 1.03 | 69 | 1011.9 |
| 20260905185147 | 89 | 44 | 0.0 | 3.5 | 0.00 | 0.00 | 1.03 | 67 | 1012.2 |
| 20260905184646 | 90 | 322 | 2.6 | 3.5 | 0.00 | 0.00 | 1.03 | 65 | 1012.5 |
| 20260905184147 | 90 | 42 | 0.0 | 5.2 | 0.00 | 0.00 | 1.03 | 65 | 1012.9 |
| 20260905183647 | 89 | 314 | 1.7 | 4.3 | 0.00 | 0.00 | 1.03 | 70 | 1012.9 |
| 20260905183147 | 88 | 357 | 0.9 | 4.3 | 0.00 | 0.00 | 1.03 | 70 | 1012.9 |
| 20260905182646 | 88 | 354 | 2.6 | 5.2 | 0.00 | 0.00 | 1.03 | 74 | 1012.9 |
| 20260905182146 | 88 | 287 | 2.6 | 4.3 | 0.00 | 0.00 | 1.03 | 74 | 1013.2 |
| 20260905181646 | 87 | 269 | 2.6 | 2.6 | 0.00 | 0.00 | 1.03 | 75 | 1012.9 |
| 20260905181146 | 86 | 240 | 2.6 | 4.3 | 0.00 | 0.00 | 1.03 | 75 | 1013.2 |
| 20260905180646 | 86 | 252 | 0.9 | 3.5 | 0.00 | 0.00 | 1.03 | 77 | 1013.2 |
| 20260905180147 | 86 | 199 | 4.3 | 5.2 | 0.00 | 0.00 | 1.03 | 78 | 1013.2 |
| 20260905175646 | 86 | 242 | 1.7 | 2.6 | 0.00 | 0.00 | 1.03 | 82 | 1013.2 |
| 20260905175146 | 85 | 261 | 3.5 | 4.3 | 0.00 | 0.00 | 1.03 | 82 | 1013.2 |
| 20260905174647 | 84 | 205 | 3.5 | 4.3 | 0.00 | 0.00 | 1.03 | 84 | 1013.2 |
| 20260905174147 | 84 | 209 | 4.3 | 4.3 | 0.00 | 0.00 | 1.03 | 86 | 1013.2 |
| 20260905173654 | 83 | 157 | 0.0 | 3.5 | 0.00 | 0.00 | 1.03 | 89 | 1013.2 |
| 20260905173147 | 82 | 223 | 1.7 | 4.3 | 0.00 | 0.00 | 1.03 | 91 | 1013.2 |
| 20260905172646 | 81 | 251 | 3.5 | 3.5 | 0.00 | 0.00 | 1.03 | 91 | 1013.5 |
| 20260905172146 | 81 | 285 | 2.6 | 3.5 | 0.00 | 0.00 | 1.03 | 91 | 1013.5 |
| 20260905171647 | 82 | 291 | 2.6 | 4.3 | 0.00 | 0.00 | 1.03 | 93 | 1013.5 |
| 20260905171147 | 81 | 335 | 1.7 | 3.5 | 0.00 | 0.00 | 1.03 | 95 | 1013.5 |
| 20260905170647 | 79 | 355 | 0.0 | 2.6 | 0.00 | 0.00 | 1.03 | 97 | 1013.5 |
| 20260905170146 | 80 | 315 | 0.0 | 2.6 | 0.00 | 0.00 | 1.03 | 99 | 1013.5 |
| 20260905165646 | 79 | 355 | 0.0 | 2.6 | 0.02 | 0.00 | 1.03 | 99 | 1013.9 |
| 20260905165146 | 79 | 339 | 1.7 | 2.6 | 0.09 | 0.00 | 1.03 | 99 | 1013.9 |
| 20260905164647 | 78 | 268 | 3.5 | 4.3 | 0.21 | 0.00 | 1.03 | 99 | 1013.9 |
| 20260905164147 | 78 | 262 | 1.7 | 3.5 | 0.33 | 0.00 | 1.02 | 98 | 1013.9 |
| 20260905163646 | 77 | 82 | 0.0 | 6.1 | 0.69 | 0.00 | 0.99 | 99 | 1013.9 |
| 20260905163146 | 77 | 58 | 4.3 | 4.3 | 1.23 | 0.00 | 0.95 | 98 | 1014.2 |
| 20260905162646 | 77 | 133 | 2.6 | 4.3 | 1.16 | 0.00 | 0.85 | 98 | 1014.2 |
| 20260905162146 | 77 | 176 | 3.5 | 6.1 | 1.70 | 0.00 | 0.75 | 98 | 1014.2 |
| 20260905161646 | 77 | 163 | 4.3 | 5.2 | 2.03 | 0.00 | 0.59 | 97 | 1014.2 |
| 20260905161146 | 77 | 186 | 5.2 | 7.8 | 1.49 | 0.00 | 0.44 | 97 | 1014.2 |
| 20260905160646 | 78 | 201 | 7.8 | 13.0 | 0.90 | 0.00 | 0.28 | 96 | 1014.2 |
| 20260905160146 | 78 | 216 | 5.2 | 8.7 | 0.47 | 0.00 | 0.18 | 94 | 1014.2 |
| 20260905155647 | 79 | 173 | 7.8 | 8.7 | 0.33 | 0.00 | 0.13 | 95 | 1013.9 |
| 20260905155148 | 79 | 138 | 3.5 | 7.8 | 0.50 | 0.00 | 0.10 | 95 | 1014.2 |
| 20260905154646 | 80 | 141 | 5.2 | 5.2 | 0.31 | 0.00 | 0.06 | 92 | 1013.9 |
| 20260905154147 | 80 | 193 | 3.5 | 7.8 | 0.07 | 0.00 | 0.01 | 91 | 1013.5 |
| 20260905153646 | 81 | 153 | 3.5 | 5.2 | 0.02 | 0.00 | 0.00 | 89 | 1013.5 |
| 20260905153147 | 81 | 129 | 1.7 | 6.1 | 0.00 | 0.00 | 0.00 | 88 | 1013.9 |
| 20260905152646 | 81 | 57 | 2.6 | 5.2 | 0.00 | 0.00 | 0.00 | 89 | 1013.5 |
| 20260905152147 | 81 | 175 | 2.6 | 6.1 | 0.00 | 0.00 | 0.00 | 88 | 1013.5 |
| 20260905151646 | 82 | 180 | 4.3 | 6.1 | 0.00 | 0.00 | 0.00 | 86 | 1013.5 |
| 20260905151147 | 85 | 186 | 4.3 | 4.3 | 0.00 | 0.00 | 0.00 | 84 | 1013.5 |
| 20260905150646 | 85 | 194 | 0.9 | 2.6 | 0.00 | 0.00 | 0.00 | 79 | 1013.5 |
| 20260905150147 | 85 | 269 | 2.6 | 4.3 | 0.00 | 0.00 | 0.00 | 80 | 1013.5 |
| 20260905145646 | 86 | 332 | 3.5 | 5.2 | 0.00 | 0.00 | 0.00 | 78 | 1013.5 |
| 20260905145147 | 86 | 358 | 2.6 | 4.3 | 0.00 | 0.00 | 0.00 | 78 | 1013.5 |
| 20260905144647 | 85 | 58 | 3.5 | 4.3 | 0.00 | 0.00 | 0.00 | 78 | 1013.2 |
| 20260905144146 | 86 | 21 | 1.7 | 2.6 | 0.00 | 0.00 | 0.00 | 80 | 1013.5 |
| 20260905143646 | 85 | 359 | 2.6 | 2.6 | 0.00 | 0.00 | 0.00 | 81 | 1013.5 |
| 20260905143146 | 84 | 330 | 2.6 | 3.5 | 0.00 | 0.00 | 0.00 | 82 | 1013.5 |
| 20260905142647 | 84 | 58 | 0.0 | 4.3 | 0.00 | 0.00 | 0.00 | 83 | 1013.5 |
| 20260905142147 | 84 | 333 | 1.7 | 5.2 | 0.00 | 0.00 | 0.00 | 84 | 1013.5 |
| 20260905141647 | 84 | 350 | 3.5 | 4.3 | 0.00 | 0.00 | 0.00 | 84 | 1013.5 |
| 20260905141147 | 85 | 305 | 5.2 | 7.0 | 0.00 | 0.00 | 0.00 | 83 | 1013.5 |
| 20260905140646 | 85 | 356 | 4.3 | 5.2 | 0.00 | 0.00 | 0.00 | 82 | 1013.5 |
| 20260905140146 | 85 | 7 | 1.7 | 4.3 | 0.00 | 0.00 | 0.00 | 83 | 1013.5 |
| 20260905135646 | 85 | 311 | 1.7 | 5.2 | 0.00 | 0.00 | 0.00 | 83 | 1013.5 |
| 20260905135146 | 84 | 24 | 4.3 | 4.3 | 0.00 | 0.00 | 0.00 | 85 | 1013.5 |
| 20260905134648 | 84 | 288 | 6.1 | 7.0 | 0.00 | 0.00 | 0.00 | 85 | 1013.5 |
| 20260905134147 | 84 | 360 | 4.3 | 5.2 | 0.00 | 0.00 | 0.00 | 86 | 1013.5 |
| 20260905133647 | 84 | 339 | 3.5 | 7.0 | 0.00 | 0.00 | 0.00 | 85 | 1013.2 |